RH
13 11 10 9 8 8 9 10 11 12 12 13 15 16 15 13 14 15 15 15 15 20 21 18 16 15 15 13 11 8 6 5 4 5 6 6 7 9 12 14 16 17 15 13 13 16 22 27 31 36 42 50 58 63 65 66 66 65 65 64 64 67 72 80 86 89 92 94 96 96 95 96 97 95 95 97 99 100 100 100 100 100 101 101 100 99
14 12 10 9 9 10 11 12 12 13 13 14 16 15 14 12 14 17 15 14 19 21 18 16 16 15 15 13 10 9 6 5 5 5 6 6 8 11 15 19 20 21 22 20 17 14 13 11 11 14 16 17 20 25 27 30 34 35 35 36 36 38 43 54 67 78 85 88 91 94 94 95 97 96 95 93 94 98 99 99 100 100 100 100 100 100
14 12 10 9 10 10 11 13 13 14 14 15 15 13 13 12 13 16 16 18 21 20 18 17 15 15 16 14 11 9 6 5 5 5 5 6 9 14 19 23 25 27 28 26 22 18 16 15 14 14 15 16 16 17 18 20 22 21 20 20 18 16 16 21 31 47 63 74 81 87 89 90 92 94 95 93 90 89 91 95 98 99 100 100 100 100
15 13 12 11 11 11 12 14 15 15 15 15 14 13 14 14 14 16 18 20 19 17 19 20 16 15 16 14 12 9 7 5 4 5 5 7 10 16 23 28 31 34 35 32 29 26 26 28 31 34 36 38 40 40 41 40 41 41 40 38 36 32 28 23 19 19 27 40 55 69 79 84 86 86 86 86 85 81 79 83 90 95 98 99 100 100
15 14 14 12 11 11 12 14 16 15 14 14 15 15 15 16 19 21 21 20 17 16 20 19 17 17 16 15 13 10 7 5 4 5 5 7 11 17 26 33 37 41 43 41 39 38 38 41 44 47 49 50 50 49 49 50 50 51 52 52 52 52 50 45 40 33 27 24 26 36 49 61 70 76 78 77 76 73 69 68 74 83 91 95 98 100
16 15 15 13 13 12 12 14 16 15 14 15 17 17 17 17 21 26 23 17 17 19 21 19 19 18 17 16 13 10 8 5 5 5 5 7 10 17 26 34 40 45 49 50 49 49 49 49 49 49 49 49 49 50 50 51 50 51 51 49 47 48 49 49 51 50 46 41 35 29 27 31 36 45 55 61 64 66 64 61 61 66 75 85 91 96
17 17 15 15 14 13 13 15 16 15 15 17 18 19 20 20 22 25 21 15 18 22 22 21 21 19 17 16 13 10 8 6 5 5 5 7 9 16 25 34 40 45 49 52 51 50 49 49 49 49 49 49 49 49 50 49 48 49 51 48 44 45 46 48 53 54 50 48 47 45 41 34 28 26 28 33 39 46 50 51 53 54 59 67 76 85
18 18 17 16 16 15 15 15 17 16 15 17 20 20 21 21 20 21 18 16 19 22 22 22 21 19 18 17 14 11 8 6 5 5 5 6 9 15 23 31 39 43 47 48 47 46 46 47 47 46 44 41 38 37 38 39 38 40 43 44 45 47 49 52 53 53 51 48 48 52 52 44 37 32 26 21 19 20 23 26 31 38 44 51 59 68
19 19 18 18 17 16 15 17 19 17 16 18 19 19 20 21 20 18 17 19 21 22 23 23 21 19 19 17 14 11 9 7 5 5 5 6 9 13 20 28 35 41 44 44 46 46 46 45 41 37 34 31 30 29 29 31 32 34 37 40 43 47 52 56 53 48 47 51 56 56 51 45 41 39 35 28 20 12 8 9 11 15 21 30 40 49
19 19 19 19 18 17 17 19 20 18 17 18 17 17 20 20 18 17 19 22 23 22 24 24 23 21 19 17 15 11 9 8 6 6 5 6 8 12 18 25 31 35 38 40 46 48 44 40 37 36 34 32 31 29 28 28 28 31 35 39 47 54 58 58 54 49 48 55 61 56 47 46 48 46 44 40 34 24 12 6 6 7 8 10 17 27
19 19 20 20 19 19 19 20 19 17 16 16 16 17 18 16 15 17 21 25 24 23 26 26 24 22 19 17 16 12 10 9 7 6 5 5 8 11 17 22 27 31 33 38 45 46 41 39 38 38 37 37 34 32 29 26 25 28 34 42 52 62 67 64 59 54 53 57 60 55 50 52 53 50 49 47 46 42 31 18 9 6 7 7 6 9
19 18 20 21 21 21 20 20 20 18 17 17 19 18 16 14 15 18 21 25 27 27 27 27 25 23 20 18 17 14 11 9 8 6 5 6 7 10 15 21 27 29 30 35 40 42 42 40 38 37 37 38 36 31 25 22 21 24 35 47 56 65 71 70 67 61 57 60 61 60 61 63 61 57 54 51 50 51 50 42 28 15 8 7 7 7
19 18 19 21 22 22 20 22 22 19 18 19 18 15 13 13 15 18 21 26 31 31 29 27 26 24 21 19 18 15 12 10 8 6 5 6 7 9 13 19 24 26 28 32 35 39 42 40 38 37 39 39 33 24 18 17 19 25 41 58 64 70 75 74 71 68 66 68 69 70 71 70 68 66 62 60 58 57 56 54 50 40 25 12 7 7
18 18 20 22 24 24 23 24 23 21 20 20 20 19 17 19 23 26 25 27 32 33 30 28 28 26 23 21 19 17 14 11 8 7 5 5 6 8 12 16 20 23 25 28 31 34 37 37 36 38 42 38 26 18 16 17 19 25 47 69 74 74 75 73 70 69 68 70 71 71 71 69 67 66 65 63 62 61 59 57 56 56 50 33 17 9
20 20 22 25 27 27 27 27 26 25 22 22 26 28 26 29 35 36 30 29 32 32 30 30 30 28 24 23 22 18 15 12 8 7 6 5 6 7 10 13 17 21 24 26 28 31 33 34 36 41 43 32 19 16 18 20 23 31 51 71 78 74 69 65 62 61 61 61 62 61 60 60 59 59 59 60 60 59 58 57 55 54 56 51 36 20
21 21 23 28 30 30 31 30 29 29 27 27 31 33 33 35 38 37 34 33 34 33 33 33 31 30 27 24 23 19 15 13 10 8 6 5 6 6 7 10 14 18 22 25 27 29 32 35 40 46 40 25 16 18 21 24 30 44 66 78 79 75 69 64 62 60 60 59 60 61 61 62 64 64 64 63 61 58 56 54 52 50 51 52 48 34
22 23 25 29 31 31 31 32 33 32 29 30 34 36 38 38 38 38 38 36 36 36 37 35 32 31 29 26 23 20 17 14 11 9 7 6 5 5 6 7 11 16 21 25 28 29 33 39 47 47 34 19 16 19 23 30 34 48 73 86 83 78 72 68 65 62 62 63 65 68 71 73 74 73 70 66 62 58 56 53 51 49 47 49 50 43
23 26 28 30 32 32 33 34 35 33 32 35 37 38 38 37 37 41 42 38 35 36 37 37 34 32 30 27 25 23 20 17 13 10 9 7 6 5 6 6 8 13 19 25 29 31 36 42 48 44 29 18 18 19 23 35 39 44 66 83 82 77 72 65 61 59 60 64 68 72 76 77 75 70 66 63 59 56 54 52 51 50 47 49 52 47
24 26 29 30 32 34 36 34 31 30 34 37 36 37 40 41 41 45 47 44 39 37 37 37 36 35 32 30 27 25 22 19 15 12 10 8 7 6 5 6 7 10 16 22 28 33 39 44 47 40 26 17 18 20 24 37 44 42 57 77 79 72 67 60 55 55 59 64 68 71 73 71 67 64 63 62 60 56 52 49 51 52 48 49 53 49
24 26 29 31 33 36 37 35 33 33 36 36 34 36 43 45 44 43 47 49 46 42 40 39 38 37 35 32 29 26 23 20 17 14 11 9 8 7 5 5 6 8 13 19 25 34 41 45 46 39 26 17 17 21 26 37 45 43 51 69 74 68 62 56 53 56 61 65 66 68 68 65 62 63 65 66 66 63 58 51 50 54 52 52 55 51
24 25 29 32 35 37 36 36 39 42 42 40 38 39 44 47 45 43 46 50 50 47 44 42 40 38 38 35 31 28 24 21 19 15 13 11 9 7 6 5 6 7 10 15 24 35 42 45 47 40 27 18 17 21 27 36 45 48 51 60 66 63 59 56 56 60 65 67 67 67 68 66 65 68 71 73 74 76 77 70 62 59 58 59 60 53
22 24 28 32 36 39 39 38 39 41 44 46 46 43 45 47 49 50 50 52 55 52 48 45 43 41 40 37 33 29 25 23 21 17 15 12 10 8 7 6 6 6 8 12 21 34 42 45 47 42 29 20 17 19 26 34 41 47 50 54 56 56 57 59 60 63 66 68 69 71 73 71 70 72 74 77 80 85 92 93 85 75 67 66 66 57
21 24 26 29 33 37 38 36 36 37 40 45 48 45 45 48 53 56 54 54 56 53 48 47 48 45 43 41 36 31 28 25 22 20 17 14 11 9 8 6 5 6 7 10 18 29 38 43 47 45 32 22 18 18 23 32 40 45 49 51 52 54 57 60 63 65 67 70 72 75 76 75 75 76 76 78 83 90 98 101 99 92 81 76 74 64
20 22 24 26 30 34 36 34 33 35 36 40 47 49 48 50 54 57 55 53 54 52 49 49 51 50 46 43 40 34 31 28 24 22 19 16 14 11 9 7 6 5 6 9 15 23 32 40 48 48 37 25 20 18 22 30 39 47 50 52 53 55 57 58 60 61 64 69 75 78 78 77 77 80 82 83 86 93 99 101 100 99 94 87 82 74
23 25 25 27 29 32 34 34 33 35 38 43 51 57 56 52 54 57 55 54 54 54 54 51 51 52 49 46 43 39 34 31 27 24 21 18 15 13 10 9 7 6 6 8 12 18 26 37 48 52 43 30 22 20 22 28 37 46 52 54 55 57 59 60 59 57 58 62 69 75 80 82 81 81 84 88 91 94 98 100 100 100 100 96 91 85
26 29 30 31 33 37 40 40 40 43 47 52 56 60 58 52 54 58 58 57 57 58 59 55 51 52 51 49 46 42 38 34 30 26 23 20 17 15 12 10 8 6 5 7 10 14 21 32 45 54 49 36 27 22 22 25 32 42 52 57 58 60 64 67 67 65 63 62 63 67 72 77 80 84 86 89 93 96 98 100 100 100 100 100 99 96
27 30 34 36 38 43 47 47 47 48 52 57 59 58 58 55 53 56 60 61 61 59 59 58 54 52 52 50 48 46 41 37 33 29 25 22 19 17 14 11 9 8 5 6 7 10 16 25 38 52 54 44 32 25 23 23 28 38 51 59 61 61 63 66 68 70 73 73 71 69 68 69 72 77 83 88 93 98 100 98 97 99 101 101 100 99
27 28 34 39 40 44 48 49 50 51 52 58 60 58 59 59 53 54 60 62 63 62 60 60 59 56 55 52 49 48 45 41 37 33 28 25 22 19 16 13 11 9 6 5 6 7 11 19 30 45 55 52 40 30 25 23 24 31 44 54 59 59 58 58 59 63 70 76 77 75 73 73 72 70 71 75 81 90 97 99 97 96 97 100 101 100
26 27 32 40 44 45 48 49 52 53 53 58 61 59 60 62 55 52 57 60 63 66 64 63 63 60 57 55 51 50 49 45 41 36 31 27 24 21 18 16 13 11 8 6 5 6 7 12 21 34 48 55 49 37 29 25 23 25 33 43 51 54 52 51 50 51 55 63 69 73 75 77 79 78 74 72 73 76 82 89 95 96 94 94 97 100
26 27 29 36 44 48 50 51 53 53 54 57 61 61 62 63 59 54 54 57 61 65 66 65 65 63 60 58 55 53 51 49 44 40 35 31 27 24 21 18 16 13 10 8 6 5 6 8 14 22 35 50 54 47 35 28 24 23 25 31 40 46 49 48 46 44 43 46 52 60 68 74 79 83 83 84 84 82 76 74 78 87 93 93 92 94
25 27 27 32 42 47 47 51 53 52 53 56 60 63 63 64 65 61 57 58 60 63 67 68 68 67 65 62 59 56 53 51 48 44 40 34 30 27 23 21 19 15 13 10 8 6 5 5 8 14 23 38 52 55 46 34 27 25 23 24 28 35 42 44 43 42 40 39 39 42 52 64 73 79 82 85 89 92 89 80 69 67 74 85 91 93
26 27 27 29 39 44 43 46 51 52 53 55 58 63 63 65 71 69 62 62 63 63 67 71 72 72 71 67 63 59 54 53 51 47 44 39 34 30 26 23 21 18 15 13 10 8 6 5 5 8 14 24 40 53 55 46 34 27 24 24 23 25 31 36 38 38 38 37 36 35 37 46 59 71 77 81 85 89 92 93 86 71 60 60 70 80
27 28 27 28 35 44 47 49 54 55 55 55 58 64 65 64 69 71 67 66 69 70 71 74 76 76 75 71 68 63 58 55 53 50 47 43 38 33 29 26 23 21 18 15 12 9 7 6 5 5 9 15 24 38 52 55 47 35 27 25 24 24 25 28 30 31 32 32 33 34 34 34 42 56 71 79 82 83 87 93 97 92 77 58 47 49
30 29 29 30 32 40 49 53 54 56 57 57 61 65 65 60 62 71 76 74 74 76 75 75 77 78 78 77 73 68 63 58 56 54 51 48 44 38 33 29 25 23 20 18 15 12 9 8 6 5 6 10 15 23 36 50 56 50 37 27 25 26 28 28 28 28 29 29 28 28 30 31 33 40 56 72 79 79 81 87 94 97 95 82 57 40
33 31 31 32 33 37 45 49 52 56 59 61 63 64 62 59 57 66 77 76 74 76 75 75 79 81 80 81 79 75 69 63 59 58 56 52 48 43 38 33 29 25 23 21 18 15 12 10 7 6 5 6 10 15 23 36 50 58 54 40 29 25 28 32 34 35 37 38 35 29 25 27 29 31 39 55 71 76 74 75 83 88 92 92 77 59
36 33 32 33 33 34 41 49 56 62 62 61 62 61 62 61 58 62 71 73 73 75 76 77 80 82 82 84 83 80 76 68 63 62 59 55 51 47 43 38 33 29 25 23 21 18 16 13 9 8 6 5 6 9 14 22 33 48 58 57 45 32 27 30 36 42 46 48 49 44 34 26 26 29 31 37 51 67 71 68 69 72 77 82 78 71
39 37 35 35 35 35 40 48 56 60 60 59 61 63 64 65 64 65 70 73 77 79 79 79 82 84 85 86 85 83 80 75 69 65 61 58 54 51 48 43 38 33 29 26 24 21 19 16 13 10 8 6 5 5 8 12 20 32 47 58 59 50 37 30 31 38 45 49 51 53 50 41 31 27 29 31 35 47 60 67 68 67 68 72 73 71
43 42 40 38 38 39 41 45 49 51 56 62 66 67 67 68 69 68 66 69 75 78 78 80 84 86 87 88 88 86 84 82 77 72 67 62 58 55 52 48 43 38 34 30 27 24 22 19 16 13 10 8 7 5 5 6 10 19 31 45 57 61 55 43 33 31 37 45 50 53 55 55 49 39 33 33 33 36 43 55 65 68 69 69 70 72
46 46 45 42 42 43 45 50 54 54 58 64 68 69 68 68 68 63 57 59 65 71 77 82 85 87 88 90 91 90 88 87 85 80 74 69 64 60 57 54 49 44 39 35 30 27 25 22 20 16 13 10 8 7 5 5 5 9 18 30 44 56 63 60 50 38 31 34 46 54 55 55 57 57 52 44 39 39 41 46 54 61 65 65 66 70
50 49 48 45 44 44 47 53 59 60 60 63 66 66 65 63 63 62 60 61 63 70 80 85 86 88 90 91 92 94 94 92 90 88 83 77 71 65 62 58 54 50 45 40 35 32 28 26 23 20 16 13 10 9 7 5 5 5 8 16 29 43 55 63 66 60 46 34 33 44 53 54 53 57 62 58 51 47 47 49 51 54 56 58 59 63
54 54 53 49 46 46 49 52 55 59 62 62 63 65 63 61 63 68 69 70 70 73 79 84 86 90 92 91 93 97 97 95 95 94 92 87 79 72 68 64 60 56 51 46 41 37 33 30 26 24 21 17 13 11 9 7 6 5 4 7 15 28 41 54 64 69 67 56 42 35 39 48 51 52 56 59 59 56 53 53 53 53 51 51 54 56
57 57 57 53 49 49 50 50 50 55 62 63 62 64 65 65 67 69 69 71 75 76 77 81 86 90 91 92 93 96 98 98 97 97 97 95 90 82 75 70 66 62 58 53 48 43 38 35 31 27 25 22 18 14 12 10 8 6 5 4 6 12 25 41 54 62 67 70 67 55 43 39 41 45 49 54 57 58 56 55 55 54 53 52 52 52
62 61 59 57 54 51 51 51 51 54 60 64 64 63 65 67 68 68 68 69 72 75 77 81 85 89 92 94 95 96 99 98 97 97 99 99 98 93 85 77 72 68 64 59 54 49 45 40 37 33 29 26 24 19 15 13 10 8 6 5 5 4 9 21 38 51 59 64 70 73 68 57 47 41 40 44 49 53 56 57 57 56 55 55 55 55
67 65 61 59 58 56 56 56 58 59 60 63 65 65 65 65 64 64 66 66 66 68 72 77 83 88 93 97 97 97 99 99 97 97 99 100 101 100 95 88 80 74 70 66 61 56 52 47 43 39 35 30 27 24 20 16 13 11 9 6 5 5 4 6 16 31 47 58 64 68 72 74 71 62 51 43 40 41 45 50 53 56 57 57 57 57
69 66 63 61 61 61 61 60 60 61 58 58 61 63 64 64 62 61 63 63 62 63 65 70 78 86 94 100 100 98 98 99 98 98 99 100 101 101 101 97 90 83 77 73 68 63 59 55 50 45 41 37 32 29 25 21 16 13 11 9 6 6 5 4 5 10 23 41 57 66 68 69 73 79 78 71 61 52 46 43 43 46 49 52 54 56
69 65 62 60 58 59 60 60 59 60 58 56 56 57 59 60 61 61 61 61 60 59 61 65 73 83 93 100 102 100 99 98 98 99 101 101 100 101 102 101 98 93 85 79 75 70 66 63 58 53 48 43 39 34 29 26 21 17 13 12 10 7 5 5 4 5 8 17 33 53 67 71 70 71 78 83 84 81 75 68 60 53 49 47 48 49
68 64 60 58 57 56 56 57 57 58 58 55 53 53 54 55 57 59 60 60 60 58 59 64 71 82 93 100 102 101 100 98 98 99 100 100 100 101 101 101 101 99 94 88 82 77 73 70 66 61 57 51 46 41 36 31 26 21 16 14 12 10 8 6 4 4 5 6 12 25 46 67 77 76 73 74 79 84 87 89 90 87 80 72 65 58
64 61 57 55 56 56 55 55 55 56 57 57 54 53 52 51 53 55 57 59 60 59 60 66 75 85 95 100 102 101 101 100 100 100 100 101 100 100 101 101 101 101 99 96 90 84 79 76 72 68 64 59 54 49 43 37 31 26 21 18 14 12 10 8 6 5 4 4 5 9 20 42 66 81 84 79 75 76 78 80 84 91 96 99 95 86
62 58 56 53 54 55 54 52 53 54 55 56 55 52 50 49 49 51 55 57 58 59 63 70 80 90 97 100 101 101 101 101 100 100 100 101 101 100 100 101 101 101 101 100 97 92 85 81 77 73 69 66 62 57 51 45 38 32 26 22 18 14 12 10 8 6 5 4 4 4 7 16 37 63 83 88 83 78 77 76 74 73 78 88 98 102
60 57 55 53 53 54 53 52 53 54 54 56 55 51 48 46 46 49 53 56 57 62 69 77 86 94 99 101 101 101 101 101 101 100 100 100 100 100 100 100 101 101 101 101 100 98 93 87 82 78 74 71 68 65 60 52 46 40 33 26 21 17 15 13 11 8 6 6 4 4 4 5 12 31 59 84 94 89 80 76 74 70 67 68 77 91
58 56 55 54 52 53 54 54 55 56 57 57 54 49 44 43 44 48 53 56 59 68 78 86 93 98 100 102 102 101 101 101 101 101 100 100 100 101 100 100 100 100 100 101 101 100 99 94 87 82 79 75 72 71 68 62 54 48 40 32 26 21 17 15 13 10 8 7 5 4 5 5 5 10 27 59 89 100 94 84 76 71 67 62 63 73
Wind_Speed
35 35 34 35 39 42 45 48 50 52 54 57 58 58 60 61 61 63 66 69 71 70 71 77 80 81 82 84 85 87 87 85 82 77 72 68 65 62 59 56 52 47 44 42 41 42 45 47 50 52 54 54 55 56 57 58 58 59 59 59 60 62 65 68 70 72 72 72 72 71 70 68 67 68 67 67 68 69 69 69 69 70 72 73 75 78
36 36 36 38 40 41 44 48 50 52 54 57 58 58 60 62 62 62 66 69 69 68 72 78 82 83 83 84 85 86 87 86 82 78 74 70 67 63 59 55 52 49 47 45 43 42 43 44 46 47 49 50 51 53 55 56 58 59 60 61 62 63 64 66 68 71 73 74 73 73 73 71 69 70 72 73 73 74 74 73 71 71 72 74 75 77
37 37 38 39 39 41 43 47 50 52 54 56 58 59 60 62 63 63 66 68 67 69 74 78 82 84 84 83 85 86 87 85 82 78 76 71 67 63 59 55 51 49 48 47 47 45 43 42 41 42 41 41 41 41 43 45 47 50 52 54 56 58 60 63 66 69 73 76 76 76 76 75 73 73 74 76 78 79 80 79 77 75 75 76 77 79
38 38 38 38 39 41 44 47 50 52 54 56 58 59 60 61 63 65 66 67 69 73 75 77 83 85 84 84 85 87 87 84 82 79 77 72 68 63 58 55 53 51 49 48 46 44 42 40 38 38 37 37 37 38 38 40 41 43 45 46 48 50 51 54 57 61 66 72 77 79 79 78 78 78 78 79 81 83 85 86 84 81 80 79 81 82
38 38 38 39 40 42 45 48 50 52 55 58 58 59 61 62 63 64 66 68 72 75 75 77 82 84 84 85 86 87 87 86 83 81 78 74 69 63 57 53 51 50 49 49 47 44 42 40 39 39 39 39 40 41 41 42 43 43 44 45 46 47 48 49 50 52 54 58 65 72 78 81 81 82 83 83 84 86 89 90 90 89 86 84 84 85
38 38 39 40 40 42 45 48 51 53 56 58 59 59 60 62 61 61 65 70 73 74 75 78 79 80 84 86 85 87 87 87 85 82 79 75 69 63 56 51 47 46 46 46 46 45 43 42 40 40 40 41 41 42 43 43 44 44 45 46 46 46 47 47 48 50 51 51 52 55 62 70 76 80 84 87 89 90 92 94 95 95 94 92 90 89
38 38 40 41 41 43 45 48 51 54 56 58 59 58 58 60 61 61 65 72 73 72 74 77 76 78 82 84 84 86 86 86 86 83 80 75 69 64 59 53 48 46 44 43 43 42 42 41 40 39 39 40 40 41 42 43 43 44 45 47 47 45 45 44 45 48 50 50 50 49 50 54 59 64 70 77 84 90 94 98 101 102 101 99 97 95
38 39 40 41 42 43 45 48 52 54 56 58 57 57 57 58 60 61 65 71 71 71 73 74 74 76 79 81 83 84 85 86 86 84 80 75 70 65 61 56 51 48 46 44 41 40 39 39 40 40 40 41 41 41 41 43 44 43 44 46 46 45 44 43 43 45 47 48 48 49 49 49 49 50 54 59 65 73 81 89 97 105 108 107 105 103
39 40 41 41 42 43 45 48 51 53 55 57 56 56 57 57 59 61 65 68 69 70 70 70 73 75 77 80 82 83 85 85 84 83 81 77 71 65 60 56 52 50 47 44 40 39 38 39 41 42 43 43 43 43 43 44 44 45 44 45 45 44 42 42 42 43 44 44 44 46 47 46 46 47 48 50 52 56 63 71 80 91 101 109 112 111
39 41 42 42 43 43 45 47 50 52 54 55 55 56 57 57 58 61 64 66 67 68 68 69 72 75 77 80 81 82 83 83 84 84 82 78 72 66 61 57 53 49 46 42 39 39 39 39 41 42 44 45 45 45 45 45 45 44 44 43 42 41 39 39 40 41 41 40 42 44 43 42 44 45 46 47 47 49 52 57 64 72 81 92 103 110
41 42 42 43 44 44 44 45 48 51 54 55 55 56 56 57 59 61 63 63 64 66 66 68 70 73 75 77 79 81 81 83 85 85 83 79 74 68 63 58 54 51 46 41 38 38 39 40 41 42 44 46 47 47 47 47 45 44 42 41 39 38 37 37 38 39 39 38 40 41 40 41 44 45 46 46 46 46 46 47 51 58 65 72 81 92
41 42 43 44 44 44 44 46 49 51 54 55 56 56 57 59 60 62 62 62 63 64 66 68 70 72 73 74 77 80 81 83 85 86 85 82 76 70 64 59 55 52 47 42 39 39 39 40 41 43 45 47 49 49 49 48 46 44 40 38 36 35 34 35 36 36 36 35 37 38 39 40 43 44 44 45 45 46 45 44 44 46 51 58 65 72
41 42 44 45 44 44 45 46 49 51 53 54 54 54 56 58 60 62 63 63 61 61 64 68 70 70 71 73 76 78 80 82 84 86 85 83 79 73 67 61 56 52 48 44 41 40 40 42 43 45 48 50 50 50 50 48 45 42 39 36 34 33 32 31 32 32 32 32 33 34 35 36 38 39 40 41 42 44 44 44 43 42 42 46 51 58
42 43 45 46 45 45 45 46 49 51 53 54 54 56 58 61 63 64 65 65 62 60 64 68 68 68 69 72 75 76 78 80 83 84 84 82 79 75 68 63 57 53 49 45 42 41 41 43 45 47 50 51 52 51 49 46 43 39 36 33 31 31 30 30 30 30 30 30 30 31 33 34 35 36 37 38 39 41 42 42 42 41 40 40 41 46
43 43 45 47 46 45 44 46 50 52 54 55 56 58 61 63 64 63 65 67 63 62 65 66 66 67 70 72 73 76 78 81 82 82 82 81 79 75 69 64 59 54 49 46 44 42 43 44 46 50 52 53 53 51 48 45 41 37 34 32 31 30 30 30 30 30 31 31 32 32 34 34 35 35 36 36 37 38 39 41 41 40 39 38 37 39
43 44 45 46 46 45 44 46 49 52 54 55 56 58 60 62 63 63 65 66 65 63 64 64 64 65 70 72 74 77 79 80 81 81 81 80 79 76 72 67 61 55 50 47 45 43 44 45 48 51 53 54 54 52 48 43 39 35 32 30 29 29 29 29 29 29 29 30 31 31 32 32 33 33 34 35 36 37 38 39 40 40 39 37 35 35
43 44 45 46 46 44 44 45 48 51 53 54 56 58 59 61 62 64 64 65 66 64 60 62 63 65 68 72 73 75 77 77 78 80 80 81 80 78 75 71 65 58 52 48 46 45 45 46 49 51 53 54 55 53 48 43 39 34 30 29 27 26 26 26 27 28 28 28 28 28 28 29 29 30 31 33 34 35 36 37 38 38 38 36 33 33
42 43 44 45 45 44 44 45 47 49 52 54 55 57 59 60 62 63 63 65 66 64 61 61 64 66 67 69 70 72 73 75 76 78 79 80 80 79 77 73 68 62 55 50 47 46 46 47 49 51 53 55 56 52 47 43 39 34 30 28 27 25 25 26 27 28 28 28 27 27 27 27 28 29 30 31 33 34 34 34 35 35 35 33 31 30
43 43 44 46 46 44 43 45 47 49 51 53 54 56 58 60 62 62 62 64 66 66 64 62 63 67 66 66 68 70 72 73 75 77 79 80 81 80 78 75 71 65 58 52 49 47 47 48 49 51 53 55 56 52 47 43 39 34 30 28 28 26 26 26 27 28 29 28 27 26 26 27 28 29 31 32 33 33 33 32 31 31 32 29 27 27
43 44 45 47 47 44 42 44 48 50 52 53 54 56 57 59 61 61 61 63 64 65 66 64 64 66 66 65 67 69 71 74 76 78 79 81 81 81 80 77 73 68 61 55 51 48 47 47 48 50 52 55 55 51 46 43 39 34 29 28 28 28 27 27 28 29 29 29 28 27 27 28 29 31 32 34 35 34 33 31 29 28 27 25 23 23
43 44 45 46 46 44 42 44 47 49 52 55 56 57 57 58 60 62 61 61 62 63 65 65 65 65 66 66 67 68 71 74 76 78 79 80 81 81 80 78 74 70 65 58 52 49 47 47 48 49 51 53 54 50 45 42 39 35 31 29 29 29 29 29 29 29 29 29 28 28 28 29 30 32 34 35 36 36 34 31 27 25 24 21 19 19
44 45 45 46 46 44 42 43 45 47 51 54 56 57 58 58 60 61 62 62 61 62 64 65 65 66 66 66 66 68 70 72 74 77 78 79 80 81 81 79 75 72 68 62 55 50 48 47 47 48 49 52 53 50 45 42 40 37 34 31 30 30 29 29 29 29 29 29 29 29 29 30 30 32 34 36 37 37 34 30 25 23 21 18 16 15
44 45 46 46 46 44 42 42 44 47 50 53 55 57 58 58 59 59 61 62 61 62 65 65 63 65 67 65 65 66 68 70 72 74 76 77 78 79 80 79 76 73 69 64 58 52 49 47 46 46 48 50 51 50 46 43 41 40 37 34 32 31 30 29 29 29 29 30 30 30 30 30 31 32 33 36 37 38 36 31 25 21 19 16 14 14
44 46 47 48 47 45 43 43 45 47 50 52 55 57 58 58 58 58 59 61 61 63 67 66 61 62 65 65 63 63 65 68 70 71 73 74 76 78 79 79 78 74 71 66 60 54 51 48 46 45 46 47 49 49 47 44 42 40 39 37 35 33 32 31 30 30 30 30 30 30 30 30 31 32 33 35 37 38 37 33 28 22 18 15 14 13
43 46 48 49 49 48 46 46 47 48 50 53 55 56 57 58 58 58 59 61 62 62 65 66 63 60 62 62 60 61 63 65 67 69 71 73 75 76 78 79 79 77 73 68 62 58 53 49 47 45 44 45 47 47 45 43 41 39 38 37 36 35 34 34 33 33 32 31 31 30 30 30 30 31 32 33 35 36 36 35 30 24 19 16 14 14
42 45 48 49 49 48 47 46 47 48 49 51 53 54 56 58 58 59 59 61 62 61 61 64 65 62 61 62 61 60 61 63 65 67 69 71 73 75 77 78 79 78 75 69 64 60 55 51 48 45 44 43 44 44 43 41 39 37 36 36 36 36 36 36 35 35 34 34 33 32 31 31 31 30 31 31 32 33 34 34 32 27 22 18 16 15
41 43 46 48 48 46 44 44 44 45 46 49 51 53 55 57 58 59 59 60 62 62 60 63 66 65 63 63 63 61 61 62 63 65 67 69 71 73 76 78 79 78 76 71 66 62 58 53 49 46 43 42 42 42 42 40 37 35 34 35 35 35 36 36 36 36 35 35 34 33 33 32 32 31 31 30 30 31 32 32 31 29 25 21 17 16
41 42 43 46 47 45 42 42 43 44 45 47 50 52 54 55 57 58 59 60 61 62 63 63 64 65 65 65 66 63 61 61 63 64 66 67 69 72 74 76 77 78 77 74 70 66 61 55 50 47 44 42 40 40 40 39 37 34 32 32 33 34 35 35 36 36 36 35 34 34 33 33 32 32 31 31 30 30 30 30 30 29 27 24 21 18
42 42 42 43 45 44 42 41 42 42 44 46 49 51 52 54 56 58 58 60 61 62 63 62 62 64 65 66 67 65 62 62 63 63 65 66 67 69 71 73 75 77 77 75 72 69 64 59 53 49 45 42 40 39 39 38 36 34 32 30 30 31 33 34 35 36 36 36 35 34 33 33 33 32 32 32 31 31 30 28 28 27 27 25 23 21
43 42 42 42 43 43 41 41 41 42 43 46 48 50 52 54 56 57 58 60 61 61 62 63 62 64 66 65 66 66 64 63 63 62 63 65 66 67 69 71 74 75 76 76 74 71 67 62 57 52 47 43 40 38 37 37 36 34 32 30 29 29 30 31 33 34 36 36 36 35 34 33 32 32 32 32 31 31 31 29 28 26 25 24 24 22
43 43 43 43 42 41 41 40 41 42 43 45 48 50 51 53 55 57 59 60 61 62 63 63 63 64 65 64 64 65 64 64 63 62 62 63 64 66 67 69 72 74 75 75 75 73 69 65 60 55 50 46 42 39 37 36 35 34 33 30 28 27 27 28 30 32 33 35 35 35 35 33 32 31 31 31 30 30 30 30 29 27 25 23 22 22
44 43 43 43 42 42 43 42 42 42 43 45 48 50 51 52 53 56 59 60 61 62 62 63 63 63 64 64 63 64 65 63 63 63 61 61 63 64 65 67 69 71 73 74 74 74 71 68 63 58 53 48 44 40 37 35 34 34 33 32 30 28 27 27 28 29 30 32 33 34 34 33 32 31 30 30 29 29 28 28 28 27 26 24 22 20
44 44 44 44 43 43 43 43 42 42 43 45 48 49 50 52 53 56 58 59 60 62 62 63 63 63 63 64 63 64 65 63 63 63 62 60 61 62 64 65 67 68 70 72 73 73 72 70 66 61 56 51 47 43 39 36 34 33 32 32 31 29 27 27 27 27 28 29 30 31 32 33 32 31 30 29 28 28 27 27 26 26 25 24 23 21
44 45 45 45 45 43 42 42 41 42 44 46 48 48 50 52 54 55 57 59 60 61 62 63 63 63 63 64 64 64 65 65 63 62 62 60 60 61 62 63 64 65 67 70 71 72 72 71 69 65 59 54 50 46 42 38 35 33 32 31 30 29 28 27 27 27 27 27 27 28 29 30 31 31 29 28 27 27 27 26 25 25 24 23 23 22
44 45 45 46 46 44 43 43 43 43 44 45 46 48 50 53 55 55 55 57 59 61 62 63 64 64 64 65 64 64 65 66 64 62 61 60 59 60 60 60 62 63 64 67 68 70 71 71 70 67 63 58 53 50 46 42 38 35 33 31 30 29 28 27 27 27 27 27 27 27 27 28 29 30 29 27 25 25 26 26 25 24 24 23 23 22
44 46 46 46 46 46 45 44 43 42 42 43 46 48 51 53 56 56 56 57 59 61 62 63 63 64 65 65 65 64 64 66 66 63 61 60 60 60 59 59 60 61 62 64 66 68 69 70 70 69 66 62 57 52 49 45 41 37 34 32 31 29 27 27 27 26 26 26 27 26 26 26 26 27 28 27 25 24 24 24 24 24 24 23 24 24
45 46 47 47 47 47 46 45 43 42 42 45 47 50 52 54 56 57 56 57 59 60 61 63 63 64 65 65 66 65 64 64 65 64 62 61 61 60 59 59 59 60 61 63 64 65 67 69 69 69 68 65 61 56 52 49 45 40 36 34 32 30 28 27 26 26 26 26 26 26 26 25 25 25 26 27 26 24 23 23 23 23 23 22 22 23
44 46 47 48 48 48 47 47 47 46 47 48 49 51 53 54 56 57 57 57 58 60 61 63 63 64 65 65 66 66 65 64 64 64 64 62 61 60 60 59 59 59 60 61 63 64 65 67 68 68 68 67 65 61 56 52 48 44 40 36 33 32 30 28 27 26 26 26 26 26 26 25 24 24 24 25 25 24 22 21 21 22 22 22 21 21
44 45 47 47 47 48 48 48 48 49 49 49 50 51 52 54 55 57 58 58 59 60 61 62 63 64 65 65 65 66 66 64 64 65 64 63 62 61 60 59 59 59 59 60 61 62 63 65 66 67 68 67 67 65 61 56 52 48 44 39 35 33 31 29 28 27 26 25 25 25 26 25 24 23 23 23 23 23 22 21 20 20 20 21 20 20
44 46 47 47 48 48 48 48 47 48 48 49 50 51 53 54 56 57 59 60 60 60 61 62 63 64 64 65 65 66 66 66 65 65 64 63 63 62 61 60 59 58 58 59 60 61 62 63 64 66 66 67 67 66 64 61 56 52 48 43 38 35 32 30 29 28 27 26 25 24 25 25 25 24 23 23 23 22 21 21 20 19 18 19 19 19
45 46 47 48 48 48 49 49 48 47 48 50 51 52 54 55 56 57 58 59 60 60 60 61 62 63 64 65 65 65 66 66 66 65 64 63 62 62 61 60 59 58 58 58 59 60 61 62 63 64 65 65 66 66 66 64 60 56 53 48 43 38 34 32 30 29 28 27 26 25 24 25 25 25 24 24 24 23 22 21 20 19 19 18 18 18
46 47 47 48 48 48 49 50 50 49 51 52 53 53 54 55 56 57 57 58 59 60 61 62 62 64 65 65 65 65 65 66 66 65 64 63 62 61 61 60 59 59 58 57 58 58 59 60 61 62 63 64 65 65 65 65 63 60 56 52 48 43 38 34 31 30 29 28 27 27 26 25 25 26 25 24 24 24 24 23 22 21 20 19 18 18
46 47 47 47 48 48 49 50 52 52 52 53 54 54 54 55 56 57 58 58 59 61 62 62 63 64 65 66 66 66 65 65 65 65 64 63 61 61 61 61 60 59 58 58 57 57 58 59 60 61 62 63 64 65 65 65 64 63 60 56 53 49 44 38 34 31 30 29 27 27 27 26 26 26 27 26 25 24 24 24 24 23 22 21 20 19
44 45 46 47 47 48 48 49 51 52 51 51 53 54 55 55 56 57 58 59 60 61 62 63 64 65 66 67 67 67 66 65 65 65 64 63 62 61 61 61 60 59 58 58 58 57 57 58 59 60 60 61 62 63 64 64 64 64 62 60 56 53 49 44 39 34 32 30 29 28 27 27 26 27 27 28 28 27 26 25 25 24 24 23 22 21
44 44 45 45 45 46 46 47 49 50 51 51 52 54 55 56 58 59 60 61 62 62 63 64 64 65 66 67 67 67 66 66 65 65 64 63 63 62 61 61 60 60 59 59 58 57 56 57 57 58 59 60 60 61 62 63 64 64 63 62 60 57 53 49 45 40 35 32 30 29 28 28 27 26 27 28 29 29 28 28 27 27 27 26 25 24
44 44 44 44 45 45 45 46 48 49 51 52 52 54 55 56 58 59 60 62 63 63 64 64 65 65 66 67 67 67 67 66 65 65 64 64 63 63 62 61 60 60 59 59 58 58 57 56 57 57 58 59 59 60 60 61 62 63 63 62 62 60 56 52 49 45 41 37 33 30 29 28 28 27 27 27 27 28 29 29 29 28 28 28 28 27
44 44 44 44 46 47 47 47 48 49 51 52 53 54 55 56 58 59 61 62 63 64 64 64 65 65 66 67 67 67 67 67 66 65 64 64 63 63 63 62 61 60 59 59 58 58 57 56 56 57 57 58 58 59 59 60 60 61 61 62 62 61 59 56 52 49 45 42 38 34 31 29 28 28 27 27 27 27 27 28 28 28 27 28 28 28
44 45 45 45 46 48 49 49 49 50 51 52 53 54 55 56 57 59 61 62 63 64 64 64 65 66 66 67 67 68 68 68 66 65 65 64 64 63 63 63 62 61 60 59 58 58 57 56 56 56 56 57 57 58 58 58 59 59 60 60 61 61 60 59 56 52 49 46 43 39 35 31 30 29 28 28 27 26 26 27 27 27 26 26 26 26
45 45 46 46 47 48 49 50 50 50 51 53 54 55 56 57 58 59 61 62 63 63 64 64 65 66 66 67 68 68 69 69 68 67 66 65 64 64 63 63 62 62 61 60 58 57 56 56 55 55 55 55 56 56 57 57 57 58 58 59 59 59 59 59 58 55 52 49 46 43 39 36 32 30 30 29 28 27 26 25 26 27 27 26 25 25
44 45 46 47 47 48 50 51 52 53 53 54 56 57 57 57 58 59 61 62 63 64 64 64 65 66 67 67 68 69 69 69 69 68 67 66 66 65 64 63 62 62 61 60 59 57 56 55 55 54 54 54 54 55 55 55 55 56 57 57 58 58 59 59 58 57 55 52 49 46 44 40 37 33 31 30 30 30 28 26 25 26 26 27 26 24
43 45 47 48 47 47 49 51 53 55 55 56 57 58 58 58 58 59 61 62 63 64 65 65 66 67 67 68 68 69 70 70 70 70 69 68 67 66 65 64 63 62 61 60 59 58 56 55 54 54 53 53 53 53 54 54 54 55 55 56 56 57 57 58 58 58 57 55 52 50 47 44 41 37 34 31 31 31 31 30 29 27 26 26 25 25
Wind_Direction
349 350 348 346 350 353 352 353 354 354 353 351 351 350 349 351 353 353 352 353 354 355 353 352 354 358 359 359 357 354 352 351 349 347 345 342 338 336 334 333 331 328 324 319 310 302 295 290 287 285 284 283 282 282 281 281 280 279 277 275 271 267 264 261 259 258 256 254 252 250 248 245 242 241 243 246 248 248 246 244 242 242 242 243 244 244
349 348 346 349 352 352 352 353 353 354 353 352 351 350 350 352 353 354 353 354 355 354 354 354 355 359 1 1 358 355 353 352 351 348 345 342 339 338 336 335 333 332 331 328 323 316 309 303 298 295 292 290 288 287 286 285 285 283 282 279 276 273 269 265 261 259 258 257 256 254 252 248 245 243 243 244 246 247 247 245 243 242 241 240 241 242
348 346 347 349 350 350 352 352 353 354 353 352 351 351 352 353 354 354 354 355 355 355 356 357 357 360 3 2 359 357 355 354 351 348 345 343 340 339 338 337 336 335 334 333 331 328 325 320 315 312 309 306 303 300 296 293 291 289 287 284 281 278 275 271 266 261 258 257 256 256 255 252 249 247 246 246 246 247 247 246 244 243 241 240 240 240
347 346 347 348 348 349 350 352 353 353 352 353 352 352 352 353 354 355 355 355 355 357 359 359 358 1 4 3 1 359 356 355 353 349 347 344 342 342 340 339 338 338 337 335 334 333 332 330 326 323 321 318 315 312 308 305 301 298 295 293 290 288 284 280 276 270 264 260 257 256 256 255 254 251 249 248 248 248 247 246 245 244 242 241 240 240
346 345 345 346 347 348 349 351 352 352 353 353 354 354 353 355 356 355 355 355 356 359 0 1 1 2 4 4 3 1 358 356 354 351 349 347 344 343 342 340 339 338 337 336 334 334 333 331 329 326 323 320 317 314 312 309 305 302 298 295 292 289 287 285 283 280 275 270 264 259 257 257 257 256 254 252 251 251 250 248 246 245 244 243 241 240
347 345 345 345 346 347 348 349 351 352 353 354 355 355 355 356 356 356 355 356 359 0 360 2 4 2 3 5 4 1 359 357 355 353 351 349 346 344 344 342 341 339 337 335 334 333 332 331 329 327 324 322 320 317 314 311 307 304 300 296 293 289 286 285 283 281 279 277 273 268 263 261 260 259 259 258 256 256 255 253 250 247 245 244 243 242
347 346 345 345 345 345 346 348 351 353 353 354 356 356 356 356 357 357 356 357 1 1 1 3 4 3 4 6 5 2 0 358 356 354 352 350 348 346 345 344 343 341 339 337 336 335 334 333 332 330 328 325 322 319 316 312 309 305 301 298 296 292 289 286 284 282 279 276 273 271 270 267 265 264 263 262 260 259 258 258 256 253 249 247 245 244
349 348 347 345 344 345 346 349 351 352 352 354 355 357 357 357 358 358 357 359 1 1 3 4 4 4 4 5 5 3 1 359 357 355 353 352 351 348 346 345 344 343 342 340 339 339 338 337 335 333 331 329 326 323 319 315 312 309 305 301 297 293 290 288 286 285 283 278 272 268 268 270 271 271 270 269 266 263 260 259 258 256 254 251 249 247
350 349 348 346 345 345 347 350 351 352 352 353 354 356 358 358 359 359 359 1 1 2 4 3 3 5 5 5 5 4 2 359 357 356 355 354 353 350 348 346 346 345 343 342 341 341 341 340 338 336 334 332 330 327 323 319 316 313 310 306 301 296 291 288 288 289 287 281 274 268 268 271 274 275 276 277 277 274 268 262 259 257 255 253 251 249
350 350 349 347 345 346 349 350 350 351 352 352 353 356 358 358 360 1 2 2 2 2 3 3 5 6 5 5 4 3 2 360 359 358 357 356 354 352 350 348 347 346 344 343 341 340 342 341 339 338 336 334 332 329 325 321 318 316 314 312 307 301 294 291 291 294 292 283 274 270 271 274 276 277 280 282 284 284 280 273 266 261 258 255 252 250
350 350 350 348 347 347 348 349 350 351 351 351 353 356 358 359 1 4 4 2 1 3 4 5 7 6 5 4 4 3 2 -0 0 0 359 358 356 354 352 350 348 347 346 344 341 340 341 341 340 339 337 335 332 330 326 322 319 316 315 314 311 305 298 295 295 297 296 287 278 276 277 279 280 281 282 284 285 287 288 284 277 270 264 260 256 253
349 349 350 350 348 347 347 348 350 351 351 352 354 356 358 1 3 5 6 3 2 3 5 6 8 7 5 4 4 4 3 1 0 0 360 359 358 356 353 351 349 347 346 343 340 339 339 339 339 338 337 335 333 330 327 324 320 317 316 315 314 309 304 300 299 299 300 294 286 283 284 284 284 285 285 285 286 286 287 288 286 281 273 267 262 258
348 349 349 350 349 347 347 348 349 350 351 352 354 356 358 1 4 6 6 6 4 4 5 7 8 6 5 4 5 4 3 2 1 1 0 359 358 357 355 352 350 347 346 344 341 339 337 337 337 337 337 337 335 332 329 325 322 319 317 316 316 315 311 308 305 303 303 299 295 291 290 288 288 287 287 287 286 287 287 288 288 288 284 277 270 264
348 350 349 350 350 348 347 347 349 350 351 352 354 357 359 1 4 5 5 7 7 4 4 7 8 6 6 6 6 5 5 4 3 2 1 359 358 357 355 353 351 349 347 344 342 340 338 337 337 338 338 339 338 335 332 328 325 322 319 317 317 317 315 313 311 308 306 302 299 296 293 292 291 290 290 289 288 288 288 288 288 288 287 285 280 272
348 350 350 350 350 348 347 347 349 350 351 353 355 358 0 2 3 3 3 5 7 6 5 7 7 5 6 7 6 6 6 4 4 3 2 1 359 358 356 354 353 351 348 346 344 342 340 339 340 340 341 341 340 338 335 332 330 328 323 320 319 318 317 315 314 312 309 305 302 299 297 295 294 293 292 291 290 289 288 288 288 288 287 287 286 282
348 350 351 351 350 348 347 348 349 350 351 354 356 358 1 2 2 2 3 3 5 7 6 5 6 6 5 7 7 5 5 4 3 3 3 2 1 0 359 357 355 353 351 348 347 344 343 343 343 343 343 343 342 341 339 337 335 333 330 327 325 323 322 321 321 319 315 311 307 304 302 300 299 298 297 295 293 291 290 289 289 288 288 288 288 288
349 350 351 351 350 347 347 349 349 350 352 354 356 358 0 2 2 2 3 3 4 7 7 4 5 7 7 7 7 5 5 5 4 4 4 3 3 2 1 359 357 355 353 351 349 347 347 346 345 345 345 346 345 344 342 340 338 337 335 335 334 332 331 330 330 329 327 322 318 314 311 308 306 305 303 301 298 295 293 291 290 289 289 289 289 291
350 350 350 350 350 348 347 348 348 350 353 355 356 358 359 1 3 2 2 3 4 5 7 4 3 7 8 8 7 6 6 6 5 5 5 5 4 3 2 1 359 357 355 353 351 350 350 349 347 347 348 348 348 348 346 345 342 339 338 340 341 339 338 337 337 337 336 332 328 324 321 318 316 314 312 309 306 302 298 294 291 289 288 289 290 293
349 350 350 350 350 350 348 346 348 351 354 355 356 358 359 0 3 2 1 1 2 3 6 5 4 6 8 7 6 6 6 6 6 6 6 6 6 5 4 2 1 359 357 355 354 352 351 350 350 351 351 351 351 351 351 350 348 344 342 342 344 344 343 342 341 341 340 338 334 330 328 327 325 325 324 322 318 313 307 301 296 292 290 290 290 294
348 349 350 350 350 350 348 347 349 351 353 355 357 359 0 1 2 3 2 1 1 1 3 5 4 5 6 6 6 5 4 4 5 6 6 6 6 5 4 3 2 0 359 357 356 354 353 352 352 353 353 354 354 355 355 355 354 351 348 346 347 347 347 346 345 344 343 342 340 337 337 336 335 335 335 334 331 326 319 311 303 298 294 292 292 297
347 349 350 350 349 348 349 349 350 352 353 355 358 359 0 1 1 2 3 2 0 360 1 3 4 4 5 5 5 4 3 3 4 5 5 6 6 5 5 4 3 1 360 359 357 355 354 353 353 354 355 356 357 359 0 0 360 358 354 351 351 351 351 349 347 347 346 346 345 344 344 344 343 343 343 342 341 338 332 323 313 306 301 296 295 301
346 347 349 350 350 349 349 350 351 352 354 356 358 359 360 1 1 1 2 2 0 359 0 2 2 3 4 5 4 3 2 2 3 4 5 5 5 5 5 4 3 2 1 360 358 356 354 354 355 356 356 357 359 2 4 5 5 4 2 358 356 355 354 352 351 350 350 350 350 350 349 348 348 347 348 349 349 348 345 338 328 318 311 304 299 305
346 346 347 349 350 348 348 349 351 353 356 357 358 358 360 1 1 0 1 2 1 359 1 3 2 0 3 5 4 2 1 2 3 4 5 5 5 5 5 5 4 3 2 1 359 357 355 355 356 356 357 358 0 3 6 8 9 9 8 6 4 2 360 357 355 355 356 356 355 354 352 351 350 351 352 353 354 355 354 352 344 333 324 315 308 309
346 345 346 348 348 348 347 349 351 353 355 358 358 358 360 1 0 0 0 1 2 1 1 4 3 0 1 4 3 1 1 2 3 3 4 5 5 5 5 5 4 4 3 1 360 358 356 356 356 356 357 358 1 4 7 9 10 11 11 11 11 10 9 7 5 4 3 2 360 358 356 354 354 353 354 356 358 359 0 360 356 348 338 328 320 317
347 346 346 347 347 347 348 349 351 353 355 357 358 358 359 360 360 0 0 1 3 2 1 2 4 2 359 1 3 2 2 2 3 3 3 4 5 5 6 5 5 5 4 2 0 359 357 357 356 356 357 358 0 3 6 8 10 12 13 13 14 14 14 14 13 13 12 10 7 4 1 359 358 357 357 358 360 1 3 5 4 360 351 341 333 328
349 348 346 346 347 347 348 349 351 352 354 356 357 357 358 359 0 360 360 1 2 3 1 0 4 4 1 0 2 2 2 2 2 2 3 3 4 5 5 6 6 5 5 3 1 359 358 357 356 356 356 357 360 3 5 7 9 11 13 14 15 15 16 15 15 15 15 13 11 9 7 5 3 1 0 0 1 2 4 6 8 7 3 355 345 338
350 350 347 346 346 347 347 348 349 351 353 354 355 356 357 358 0 0 0 0 1 2 2 360 1 4 3 1 2 2 2 2 2 2 3 3 3 4 5 6 6 5 5 5 3 1 360 358 357 355 354 355 358 1 4 5 7 10 12 13 14 15 15 14 13 13 13 12 11 10 9 8 7 6 5 3 3 3 4 5 8 9 9 6 359 349
350 351 349 347 345 346 346 347 348 350 352 353 354 355 356 357 360 1 0 0 360 1 3 1 359 1 2 1 2 3 2 2 2 2 2 3 3 4 5 5 6 6 5 6 4 3 1 360 358 356 354 353 355 358 1 4 5 7 9 11 12 13 14 13 12 12 12 11 10 9 9 9 8 9 9 8 8 6 4 4 5 7 9 9 7 1
349 350 351 348 346 345 346 346 347 348 350 352 353 354 355 356 358 360 0 1 0 1 2 1 359 360 1 1 1 2 2 1 2 2 2 3 3 3 4 5 6 6 6 6 5 4 3 1 359 357 355 353 352 354 358 0 2 4 6 7 9 10 12 12 11 11 11 11 10 8 8 7 7 8 8 10 10 9 7 4 3 4 6 7 8 6
348 349 350 350 347 345 345 346 346 348 350 351 351 353 355 356 356 358 359 0 1 1 1 1 0 360 0 0 0 1 1 1 1 2 1 2 2 2 4 5 6 6 6 6 6 6 5 3 1 359 356 354 351 351 353 356 359 1 2 3 4 6 7 8 7 8 9 9 9 8 8 7 6 5 6 8 9 9 8 7 5 3 1 2 4 5
346 347 348 350 348 346 345 345 345 347 349 350 350 352 355 356 355 355 358 359 360 0 0 0 1 360 360 360 359 360 0 0 1 1 1 1 2 2 3 4 6 6 6 6 6 7 6 5 3 1 358 355 352 350 350 352 355 357 359 360 0 1 2 2 2 3 4 4 5 6 7 6 5 4 4 5 7 7 7 7 7 5 2 360 0 0
344 346 347 348 349 347 345 346 346 347 348 348 350 353 354 355 355 354 355 357 358 359 360 360 0 360 359 359 358 359 360 0 360 1 1 0 1 1 2 4 5 5 5 5 6 7 7 6 5 3 0 357 354 351 348 348 349 352 355 356 357 357 357 356 356 357 358 359 359 1 3 5 5 4 3 3 5 6 7 7 6 5 5 3 1 359
342 344 346 347 349 348 345 345 346 345 347 349 351 352 352 354 356 354 354 356 357 358 359 360 360 359 358 358 358 357 359 360 359 360 1 1 0 0 1 3 4 5 5 5 5 6 7 7 7 5 3 360 357 354 350 347 346 347 350 352 355 355 354 352 352 352 353 354 354 355 357 0 3 4 4 3 3 5 7 8 7 6 5 6 6 6
341 343 345 346 347 348 346 344 344 344 347 351 351 350 350 352 355 355 354 355 357 357 358 358 359 359 358 358 357 357 357 359 359 359 360 1 0 360 0 1 3 4 4 5 5 5 6 7 7 7 5 3 360 357 353 350 346 345 345 347 351 353 353 351 350 349 350 351 351 351 351 354 358 1 4 4 3 4 7 9 10 9 8 7 7 8
340 342 344 345 345 346 345 344 344 346 348 349 348 348 350 350 352 354 354 354 355 356 356 357 358 358 358 357 357 357 356 357 358 358 358 359 359 359 359 0 1 3 4 4 5 5 6 6 7 7 7 5 2 359 356 353 348 345 343 343 345 348 351 351 350 350 350 351 351 351 350 350 352 356 0 3 3 3 6 9 11 11 11 10 8 8
340 341 343 344 344 345 345 344 345 345 345 345 346 348 349 348 349 351 353 353 354 354 355 356 357 357 357 357 357 357 356 356 358 358 357 357 358 358 359 359 0 2 3 4 4 5 5 6 7 7 8 7 5 2 358 355 351 347 344 342 341 342 345 347 349 350 351 351 352 352 352 351 350 351 355 359 1 2 3 6 9 10 11 11 10 10
341 341 342 344 343 344 345 343 342 342 342 343 346 347 347 347 347 349 351 353 353 353 354 355 356 356 357 356 356 357 356 355 356 357 357 357 357 357 357 358 359 1 1 2 3 4 5 5 6 7 8 8 8 6 2 358 355 351 346 343 340 339 339 341 343 345 347 349 351 351 352 352 350 349 350 353 357 360 1 1 3 4 7 8 9 9
341 342 342 343 343 343 343 342 342 342 344 345 345 345 345 346 347 348 350 351 352 352 353 354 355 355 356 356 355 356 356 354 354 354 356 356 357 357 357 357 358 359 0 1 1 2 3 5 6 6 7 7 8 8 6 2 358 354 350 345 342 339 337 336 336 337 339 343 346 347 349 350 350 348 347 348 350 354 357 358 358 358 359 2 4 6
341 342 342 343 342 342 343 344 345 345 345 346 345 345 345 347 347 347 348 350 351 353 353 354 354 355 355 356 355 355 355 354 353 353 354 355 356 356 356 356 356 357 358 359 360 1 2 3 4 6 6 7 7 8 8 6 2 358 354 349 345 341 338 335 332 330 331 334 337 339 341 344 346 347 346 345 345 347 351 353 354 354 353 354 357 360
341 342 342 342 342 342 343 345 347 346 346 346 347 347 347 348 348 348 349 351 352 353 354 354 354 354 355 356 356 355 354 354 353 352 352 353 354 355 355 355 355 356 357 357 358 359 0 1 3 4 5 6 6 7 8 8 6 2 358 353 348 344 341 338 333 329 326 325 327 329 331 333 337 340 341 340 340 342 344 347 348 349 348 348 349 352
340 342 342 342 342 342 343 344 345 346 347 348 349 349 349 348 350 351 352 352 353 354 355 355 354 354 355 355 355 355 354 354 353 352 351 351 352 353 354 354 354 354 355 356 356 357 358 360 1 2 4 5 6 6 7 7 7 5 2 358 352 347 343 339 336 333 328 323 320 319 320 322 325 329 331 333 334 336 337 339 341 342 342 342 343 344
340 341 342 342 342 342 342 342 343 346 349 349 349 350 349 349 351 352 352 353 354 354 355 355 355 355 355 355 355 354 354 354 353 352 351 350 351 352 353 353 353 353 353 354 355 355 356 358 359 0 2 4 5 6 6 7 7 7 5 2 357 352 347 342 337 335 332 327 321 316 313 312 314 316 319 322 325 327 329 331 333 335 337 338 339 338
340 341 341 342 342 342 342 343 344 346 349 348 348 349 349 350 351 351 352 353 354 354 355 355 355 355 355 354 354 354 353 353 353 352 351 350 350 350 351 352 352 352 352 353 353 354 355 356 357 358 360 1 3 5 5 6 7 7 7 5 2 358 352 347 340 335 333 331 327 322 316 311 307 306 307 310 312 315 318 321 323 326 328 330 332 333
340 341 341 342 342 342 343 344 344 344 346 347 347 347 348 349 349 350 350 351 352 353 353 354 354 355 355 354 354 353 353 352 352 352 351 351 350 350 350 351 351 352 352 352 352 352 353 354 355 356 358 360 1 3 4 5 6 6 7 7 5 2 358 353 347 341 335 331 329 327 324 319 312 306 302 301 303 304 306 308 311 314 316 319 322 324
339 340 340 341 341 342 342 343 343 342 342 344 345 345 346 347 347 348 349 350 351 351 351 352 353 353 353 353 353 353 352 351 351 350 350 350 350 350 350 349 350 351 351 351 351 351 351 352 353 354 356 357 359 1 2 3 4 5 6 6 6 5 2 358 354 348 342 335 330 327 326 325 321 315 308 303 300 299 299 300 301 303 305 308 310 312
337 338 339 339 339 340 341 341 342 341 341 342 343 343 344 345 345 346 347 348 349 349 349 350 350 351 352 352 352 352 352 351 350 349 348 348 349 350 350 349 348 349 350 351 351 350 350 350 351 352 354 355 357 359 1 2 3 4 5 5 5 6 5 2 358 354 350 344 337 330 325 324 324 322 318 313 308 304 301 299 298 298 298 299 301 302
335 336 337 339 338 339 341 341 341 342 341 340 341 341 342 343 344 345 346 347 347 347 348 348 348 349 350 350 351 351 351 350 350 349 347 346 347 348 349 349 348 348 348 349 350 350 350 349 349 350 351 353 355 356 358 0 2 3 4 4 4 5 5 4 2 359 355 351 345 338 330 324 322 322 322 320 317 314 310 306 302 299 296 295 295 296
334 335 336 338 339 339 340 340 341 341 341 340 340 340 340 341 342 343 345 345 345 346 346 346 347 348 348 348 349 349 350 350 349 348 347 346 345 346 346 347 348 347 347 347 349 349 349 349 348 348 349 351 352 354 356 358 360 1 2 3 3 3 4 5 4 2 359 356 352 346 339 330 323 320 320 321 321 320 318 315 311 307 303 298 295 294
333 334 335 337 338 338 338 338 338 339 339 339 339 339 339 340 341 342 343 344 344 344 344 345 345 346 346 347 347 348 348 349 349 348 348 346 345 345 344 345 346 347 346 346 347 347 348 348 348 347 348 349 350 351 354 356 358 359 0 1 2 2 3 4 4 3 2 0 357 353 347 340 331 323 320 319 321 322 321 319 316 314 310 306 300 296
332 333 334 335 337 337 336 335 336 336 337 338 338 338 339 340 341 341 341 342 342 342 343 343 344 344 345 346 346 347 347 348 348 348 347 347 346 345 344 344 344 345 346 346 345 345 346 347 347 347 347 347 348 349 351 353 356 357 359 360 1 1 2 3 3 3 2 2 0 358 353 348 341 332 325 320 319 321 321 321 320 318 315 312 306 300
332 332 332 332 334 334 332 332 333 333 334 336 337 337 338 339 339 340 340 340 341 341 342 342 342 343 344 345 345 345 346 346 347 347 347 346 346 345 344 343 343 343 344 345 344 344 344 345 346 346 346 346 346 347 349 351 353 355 357 358 359 0 1 1 2 2 2 2 2 0 358 353 348 341 333 325 320 318 319 320 321 321 320 317 312 305